Regional Weather Roundup
Issued by NWS Little Rock, AR

Home | Current Version | Previous Version | Text Only | Print | Product List | Glossary On
Versions: 1 2 3 4 5 6 7 8 9 10 11 12 13 14 15 16 17 18 19 20 21 22 23 24 25 26 27 28 29 30 31 32 33 34 35 36 37 38 39 40 41 42 43 44 45 46 47 48 49 50
000
ASUS44 KLZK 170805
RWRLZK

WEATHER ROUNDUP FOR ARKANSAS
NATIONAL WEATHER SERVICE LITTLE ROCK AR
200 AM CST TUE JAN 17 2017

NOTE: "FAIR" INDICATES FEW OR NO CLOUDS BELOW 12,000 FEET WITH NO
SIGNIFICANT WEATHER AND/OR OBSTRUCTIONS TO VISIBILITY.

ARZ001-003-010-029-170900-
NORTHWEST ARKANSAS

CITY           SKY/WX    TMP DP  RH WIND       PRES   REMARKS
FAYETTEVILLE   CLEAR     36  34  92 W6        30.04R
FORT SMITH     PTCLDY    41  36  82 SW7       30.08R
HARRISON       CLEAR     40  36  86 VRB3      30.01S
BENTONVILLE    CLOUDY   N/A N/A N/A W6        30.03R
ROGERS         CLOUDY    39  35  86 W8        30.03R
SILOAM SPGS    CLOUDY    36  32  87 W3        30.04R
HIGHFILL       CLOUDY    40  36  86 SW8       30.03R
$$

ARZ004-005-016-170900-
NORTH CENTRAL ARKANSAS

CITY           SKY/WX    TMP DP  RH WIND       PRES   REMARKS
BATESVILLE     CLEAR     50  46  87 W6        30.02R
FLIPPIN        CLEAR     43  34  70 SW5       30.00S
MTN HOME       CLEAR     42  38  85 W3        30.01R
$$

ARZ040-041-170900-
WEST CENTRAL ARKANSAS

CITY           SKY/WX    TMP DP  RH WIND       PRES   REMARKS
MENA           PTCLDY    43  41  93 CALM      30.08R
MOUNT IDA      MOCLDY    45  44  97 CALM      30.05R
$$

ARZ009-017-025-026-028-170900-
NORTHEAST ARKANSAS

CITY           SKY/WX    TMP DP  RH WIND       PRES   REMARKS
CORNING        FAIR      54  52  94 W15G22    29.98R
JONESBORO      PTCLDY    60  52  74 W10       29.97R
NEWPORT        CLEAR     55  49  80 W9        29.99R
WALNUT RIDGE   PTCLDY    52  45  76 W10       29.98R
BLYTHEVILLE    LGT RAIN  60  57  89 SW10      29.98R
$$

ARZ022-023-033-042-044-170900-
CENTRAL ARKANSAS

CITY           SKY/WX    TMP DP  RH WIND       PRES   REMARKS
LITTLE ROCK    CLOUDY    53  48  83 W7        30.06R
N LITTLE ROCK    N/A     51  47  86 W5        30.06R
JACKSONVILLE   PTCLDY    51  49  91 W7        30.04R
SEARCY         PTCLDY    52  47  83 W6        30.04R
HOT SPRINGS    CLOUDY    51  48  89 W5        30.06S
RUSSELLVILLE   CLEAR     46  40  79 W8        30.05R
CLINTON        FAIR      41  41 100 CALM      30.04R
$$

ARZ036-170900-
EAST ARKANSAS

CITY           SKY/WX    TMP DP  RH WIND       PRES   REMARKS
WEST MEMPHIS   HVY RAIN  59  32  36 W6        30.00R
$$

ARZ050-053-066-070-073-170900-
SOUTHWEST ARKANSAS

CITY           SKY/WX    TMP DP  RH WIND       PRES   REMARKS
ARKADELPHIA    RAIN      54  52  93 CALM      30.07R
CAMDEN         CLOUDY    55  52  88 CALM      30.06F
TEXARKANA      LGT RAIN  52  52 100 W9        30.11R
EL DORADO      CLOUDY    56  55  97 W3        30.07S
DE QUEEN       CLOUDY    47  47 100 CALM      30.08S
$$

ARZ056-057-069-170900-
SOUTHEAST ARKANSAS

CITY           SKY/WX    TMP DP  RH WIND       PRES   REMARKS
PINE BLUFF     LGT RAIN  56  54  93 W8        30.06R
STUTTGART      CLOUDY    55  50  82 SW13      30.05R
MONTICELLO     RAIN      58  55  90 W6        30.06R FOG

$$





USA.gov is the U.S. government's official web portal to all federal, state and local government web resources and services.